Currently 75°F in Simi Valley, California, USA
75°F
78°F / 51°F
5 mph W
0.00"
Sunday, May 24, 2020 6:16 PM PDT

Simi Valley, California Climate Summary
Typical February Day

Normal High:    68.5°F (20.3°C)
Normal Low:    46.8°F (8.2°C)
Average:    56.7°F (13.7°C)

Hour    Temperature    Wind Speed    Humidity
12:00 AM    52°F (11°C)    2 mph    64%
1:00 AM    51°F (11°C)    3 mph    65%
2:00 AM    51°F (10°C)    3 mph    65%
3:00 AM    50°F (10°C)    3 mph    65%
4:00 AM    50°F (10°C)    3 mph    65%
5:00 AM    50°F (10°C)    3 mph    65%
6:00 AM    49°F (10°C)    3 mph    66%
7:00 AM    49°F (10°C)    3 mph    66%
8:00 AM    52°F (11°C)    3 mph    64%
9:00 AM    56°F (14°C)    3 mph    59%
10:00 AM    61°F (16°C)    4 mph    52%
11:00 AM    64°F (18°C)    4 mph    47%
12:00 PM    66°F (19°C)    5 mph    43%
1:00 PM    67°F (19°C)    5 mph    42%
2:00 PM    67°F (20°C)    5 mph    43%
3:00 PM    66°F (19°C)    5 mph    45%
4:00 PM    65°F (18°C)    5 mph    48%
5:00 PM    63°F (17°C)    4 mph    51%
6:00 PM    60°F (16°C)    3 mph    56%
7:00 PM    57°F (14°C)    3 mph    60%
8:00 PM    55°F (13°C)    2 mph    62%
9:00 PM    54°F (12°C)    3 mph    63%
10:00 PM    53°F (12°C)    3 mph    64%
11:00 PM    52°F (11°C)    3 mph    65%
 

The Simi Valley, California weather pages are a service of WeatherCurrents.
Copyright ©2020  WeatherCurrents. All rights reserved. - Submit questions and comments - Privacy Policy